Stations météo

réclame
Mon MeteoGroup
Shoeburyness Landwick, Grande-Bretagne (3693): Température de l'air & dewpoint: 13.06.2018 21:00:00 - 19.06.2018 21:00:00 (BST)Shoeburyness Landwick, Grande-Bretagne (3693): Température de l'air -20cm & Température de l'air -100cm: 13.06.2018 21:00:00 - 19.06.2018 21:00:00 (BST)Shoeburyness Landwick, Grande-Bretagne (3693): Vitesse du vent & gusts: 13.06.2018 21:00:00 - 19.06.2018 21:00:00 (BST)Shoeburyness Landwick, Grande-Bretagne (3693): Direction du vent: 13.06.2018 21:00:00 - 19.06.2018 21:00:00 (BST)Shoeburyness Landwick, Grande-Bretagne (3693): reduced air pressure: 13.06.2018 21:00:00 - 19.06.2018 21:00:00 (BST)Shoeburyness Landwick, Grande-Bretagne (3693): visibility: 13.06.2018 21:00:00 - 19.06.2018 21:00:00 (BST)Shoeburyness Landwick, Grande-Bretagne (3693): Ensoleillement: 13.06.2018 21:00:00 - 19.06.2018 21:00:00 (BST)Shoeburyness Landwick, Grande-Bretagne (3693): Quantités de précipitations: 13.06.2018 21:00:00 - 19.06.2018 21:00:00 (BST)
Date & Time tt [°C] td [°C] tt -20cm [°C] tt -100cm [°C] ff [km/h] ff [knt] fx [km/h] fx [knt] dd ppp [hPa] vv [km] sd [min] rr [mm]
19.06.2018 21:00:00 - - - - - - - - - - - - 0,0
19.06.2018 20:00:00 22,2 16,4 - - 16 9 - - SW 1021,9 35 36 0,0
19.06.2018 19:00:00 23,1 16,4 - - 18 10 - - SW 1021,7 40 54 0,0
19.06.2018 18:00:00 23,7 16,2 - - 22 12 - - SW 1021,9 30 24 0,0
19.06.2018 17:00:00 23,7 16,3 - - 18 10 - - SW 1022,2 40 6 0,0
19.06.2018 16:00:00 23,0 17,0 - - 11 6 - - S 1022,4 50 36 0,0
19.06.2018 15:00:00 22,5 16,7 - - - - - - - 1022,7 50 54 0,0
19.06.2018 14:00:00 22,3 16,2 - - 16 9 - - S 1023,0 45 36 0,0
19.06.2018 13:00:00 21,8 15,2 - - 16 9 - - SSW 1023,2 50 0 0,0
19.06.2018 12:00:00 21,8 14,3 - - 16 9 - - SW 1023,3 45 48 0,0
19.06.2018 11:00:00 20,1 14,1 - - 15 8 - - SW 1023,2 35 6 0,0
19.06.2018 10:00:00 19,2 14,3 17,7 15,2 11 6 - - W 1023,5 35 0 0,0
19.06.2018 09:00:00 18,7 14,6 - - 11 6 - - WNW 1023,3 50 0 0,0
19.06.2018 08:00:00 18,5 15,2 - - 9 5 - - WNW 1023,0 50 0 0,0
19.06.2018 07:00:00 18,3 15,4 - - 9 5 - - WNW 1022,4 45 0 0,0
19.06.2018 06:00:00 17,9 15,1 - - 11 6 - - WNW 1021,9 50 0 0,0
19.06.2018 05:00:00 18,1 14,8 - - 13 7 - - WNW 1021,4 50 0 0,0
19.06.2018 04:00:00 18,4 14,6 - - 13 7 - - W 1020,9 50 0 0,0
19.06.2018 03:00:00 18,5 15,1 - - 21 11 - - W 1020,5 40 0 0,0
19.06.2018 02:00:00 18,2 15,5 - - 16 9 - - WSW 1020,3 24 0 0,0
19.06.2018 01:00:00 17,3 14,9 - - 15 8 - - SW 1020,3 19 - -
19.06.2018 00:00:00 17,5 14,7 - - 16 9 - - SW 1020,2 29 0 0,0
18.06.2018 23:00:00 17,9 14,4 - - 18 10 - - SW 1020,3 24 0 0,0
18.06.2018 22:00:00 18,8 14,3 - - 16 9 - - WSW 1020,1 29 0 0,0
18.06.2018 21:00:00 20,1 14,0 - - 22 12 - - WSW 1019,3 24 48 0,0
18.06.2018 20:00:00 21,7 14,4 - - 24 13 - - WSW 1018,8 24 60 0,0
18.06.2018 19:00:00 22,1 14,4 - - 26 14 - - SW 1018,4 30 60 0,0
18.06.2018 18:00:00 22,6 14,7 - - 26 14 - - SW 1017,9 40 60 0,0
18.06.2018 17:00:00 24,9 12,3 - - 22 12 - - WSW 1018,0 28 60 0,0
18.06.2018 16:00:00 24,5 11,3 - - 22 12 - - WSW 1018,3 45 60 0,0
18.06.2018 15:00:00 22,9 10,0 - - 22 12 - - WSW 1018,4 30 60 0,0
18.06.2018 14:00:00 21,8 11,5 - - 22 12 - - WSW 1019,1 30 60 0,0
18.06.2018 13:00:00 20,2 11,1 - - 26 14 - - WSW 1019,1 45 60 0,0
18.06.2018 12:00:00 19,9 11,3 - - 26 14 - - WSW 1019,0 35 48 0,0
18.06.2018 11:00:00 18,8 12,7 - - 18 10 - - W 1018,7 45 6 0,0
18.06.2018 10:00:00 18,4 12,7 17,0 15,2 18 10 - - W 1018,5 30 12 0,0
18.06.2018 09:00:00 17,1 12,9 - - 21 11 - - WSW 1018,5 50 6 0,0
18.06.2018 08:00:00 16,4 13,5 - - 16 9 - - W 1017,9 45 0 0,0
18.06.2018 07:00:00 16,3 14,2 - - 18 10 - - WSW 1017,2 21 0 0,0
18.06.2018 06:00:00 16,2 14,8 - - 15 8 - - SW 1017,1 19 0 0,0
18.06.2018 05:00:00 16,0 14,7 - - 13 7 - - WSW 1017,0 9 0 0,0
18.06.2018 04:00:00 15,7 14,8 - - 15 8 - - WSW 1016,7 5 0 0,0
18.06.2018 03:00:00 15,8 14,4 - - 15 8 - - SW 1016,7 18 0 0,0
18.06.2018 02:00:00 15,7 14,2 - - 16 9 - - SW 1016,9 30 0 0,0
18.06.2018 01:00:00 15,4 14,1 - - 21 11 - - SW 1017,0 18 - 0,0
18.06.2018 00:00:00 15,2 13,7 - - 21 11 - - SW 1017,3 26 0 0,0
17.06.2018 23:00:00 15,2 13,3 - - 22 12 - - SW 1017,6 35 0 0,0
17.06.2018 22:00:00 15,1 13,2 - - 21 11 - - SW 1017,2 35 0 0,0
17.06.2018 21:00:00 15,3 12,7 - - 24 13 - - SW 1017,1 50 0 0,0
17.06.2018 20:00:00 16,0 12,0 - - 24 13 - - SW 1017,1 50 0 0,0
17.06.2018 19:00:00 16,8 11,4 - - 26 14 - - WSW 1016,7 22 0 0,0
17.06.2018 18:00:00 17,4 10,9 - - 22 12 - - SW 1016,4 26 0 0,0
17.06.2018 17:00:00 17,5 11,2 - - 24 13 - - SW 1016,7 25 0 0,0
17.06.2018 16:00:00 17,6 10,9 - - 22 12 - - SW 1016,7 26 0 0,0
17.06.2018 15:00:00 18,8 10,5 - - 24 13 - - SW 1016,5 28 0 0,0
17.06.2018 14:00:00 18,2 9,2 - - 18 10 - - WSW 1016,5 40 6 0,0
17.06.2018 13:00:00 18,2 9,7 - - 16 9 - - WSW 1016,5 27 18 0,0
17.06.2018 12:00:00 18,3 10,5 - - 18 10 - - WSW 1016,6 25 12 0,0
17.06.2018 11:00:00 16,6 11,2 - - 22 12 - - WSW 1016,5 17 30 0,0
17.06.2018 10:00:00 15,3 11,2 17,0 15,2 16 9 - - W 1016,7 26 0 0,0
17.06.2018 09:00:00 14,5 11,0 - - 16 9 - - W 1016,6 30 0 0,0
17.06.2018 08:00:00 14,7 10,1 - - 16 9 - - W 1016,1 30 0 0,0
17.06.2018 07:00:00 14,1 9,9 - - 15 8 - - WSW 1015,6 30 0 0,0
17.06.2018 06:00:00 13,9 9,7 - - 13 7 - - WSW 1015,2 35 0 0,0
17.06.2018 05:00:00 13,7 9,3 - - 13 7 - - WSW 1014,9 40 0 0,0
17.06.2018 04:00:00 13,8 9,3 - - 15 8 - - WSW 1014,9 45 0 0,0
17.06.2018 03:00:00 13,8 8,8 - - 15 8 - - WSW 1014,8 45 0 0,0
17.06.2018 02:00:00 14,2 8,3 - - 16 9 - - W 1014,7 45 0 0,0
17.06.2018 01:00:00 14,2 7,7 - - 16 9 - - W 1014,5 45 - 0,0
17.06.2018 00:00:00 14,7 7,7 - - 18 10 - - W 1014,3 50 0 0,0
16.06.2018 23:00:00 15,2 12,4 - - 16 9 - - WSW 1013,7 13 0 0,0
16.06.2018 22:00:00 15,4 12,1 - - 18 10 - - SW 1013,7 16 0 0,0
16.06.2018 21:00:00 16,1 11,2 - - 26 14 - - SW 1013,3 26 0 0,0
16.06.2018 20:00:00 16,7 12,1 - - 22 12 - - SW 1013,3 30 6 0,0
16.06.2018 19:00:00 17,0 12,7 - - 26 14 - - SW 1013,5 40 18 0,0
16.06.2018 18:00:00 18,0 11,6 - - 26 14 - - SW 1013,5 30 6 0,0
16.06.2018 17:00:00 19,3 10,9 - - 22 12 - - WSW 1013,6 29 30 0,0
16.06.2018 16:00:00 19,7 9,7 - - 26 14 - - SW 1013,6 40 48 0,0
16.06.2018 15:00:00 20,1 10,2 - - 24 13 - - SW 1013,6 22 54 0,0
16.06.2018 14:00:00 19,3 10,0 - - 24 13 - - SW 1013,7 35 24 0,0
16.06.2018 13:00:00 19,3 8,5 - - 21 11 - - WSW 1013,6 35 42 0,0
16.06.2018 12:00:00 19,6 8,9 - - 24 13 - - SSW 1014,1 29 60 0,0
16.06.2018 11:00:00 19,0 9,9 - - 24 13 - - SW 1014,3 25 48 0,0
16.06.2018 10:00:00 17,4 11,0 17,2 15,0 16 9 - - WSW 1014,6 25 48 0,0
16.06.2018 09:00:00 17,4 10,1 - - 16 9 - - SW 1014,8 30 24 0,0
16.06.2018 08:00:00 15,9 9,6 - - 11 6 - - WSW 1014,9 35 0 0,0
16.06.2018 07:00:00 15,4 10,7 - - 8 4 - - WSW 1014,8 40 0 0,0
16.06.2018 06:00:00 13,6 9,6 - - 5 3 - - W 1014,5 45 0 0,0
16.06.2018 05:00:00 13,4 8,6 - - 8 4 - - WNW 1014,8 50 0 0,0
16.06.2018 04:00:00 13,7 8,3 - - 8 4 - - W 1014,9 45 0 0,0
16.06.2018 03:00:00 13,4 9,1 - - 8 4 - - WNW 1015,2 40 0 0,0
16.06.2018 02:00:00 12,6 9,8 - - 9 5 - - NW 1015,3 50 0 0,0
16.06.2018 01:00:00 12,8 10,0 - - 9 5 - - NW 1015,6 40 - 0,0
16.06.2018 00:00:00 13,5 9,3 - - 9 5 - - NW 1015,4 40 0 0,0
15.06.2018 23:00:00 15,2 8,9 - - 4 2 - - W 1015,3 40 0 0,0
15.06.2018 22:00:00 15,5 10,6 - - 8 4 - - WNW 1015,4 16 0 0,0
15.06.2018 21:00:00 17,0 11,7 - - 8 4 - - NW 1015,1 30 0 0,0
15.06.2018 20:00:00 20,6 10,2 - - 9 5 - - SW 1014,7 17 0 0,0
15.06.2018 19:00:00 20,1 13,7 - - 11 6 - - SSE 1014,9 24 6 0,0
15.06.2018 18:00:00 19,5 12,2 - - 15 8 - - SE 1015,2 29 54 0,0
15.06.2018 17:00:00 20,1 12,1 - - 18 10 - - SE 1015,6 30 60 0,0
15.06.2018 16:00:00 19,8 11,8 - - 18 10 - - SE 1016,0 27 60 0,0
15.06.2018 15:00:00 19,4 11,4 - - 21 11 - - SE 1016,4 22 60 0,0
15.06.2018 14:00:00 19,6 10,8 - - 15 8 - - SE 1016,4 19 60 0,0
15.06.2018 13:00:00 19,1 9,5 - - 15 8 - - SE 1016,7 40 60 0,0
15.06.2018 12:00:00 19,0 9,6 - - 13 7 - - SSE 1016,7 30 60 0,0
15.06.2018 11:00:00 20,0 8,9 - - 8 4 - - ESE 1016,4 29 54 0,0
15.06.2018 10:00:00 18,5 9,0 16,7 15,0 8 4 - - N 1016,7 35 24 0,0
15.06.2018 09:00:00 18,0 9,7 - - 11 6 - - N 1016,9 29 54 0,0
15.06.2018 08:00:00 16,3 10,3 - - 13 7 - - NNW 1016,5 17 54 0,0
15.06.2018 07:00:00 14,5 10,1 - - 11 6 - - NNW 1016,1 18 60 0,0
15.06.2018 06:00:00 11,7 9,8 - - 11 6 - - NW 1015,8 30 12 0,0
15.06.2018 05:00:00 11,1 9,0 - - 11 6 - - NW 1015,7 21 0 0,0
15.06.2018 04:00:00 10,3 8,6 - - 11 6 - - NW 1015,6 21 0 0,0
15.06.2018 03:00:00 10,8 8,4 - - 11 6 - - NW 1015,7 21 0 0,0
15.06.2018 02:00:00 13,8 9,4 - - 9 5 - - W 1015,6 35 0 0,0
15.06.2018 01:00:00 12,8 10,7 - - 8 4 - - W 1015,7 35 - 0,0
15.06.2018 00:00:00 10,2 8,2 - - 4 2 - - WNW 1015,5 40 0 0,0
14.06.2018 23:00:00 12,5 10,4 - - 2 1 - - E 1015,3 35 0 0,0
14.06.2018 22:00:00 14,1 10,4 - - 8 4 - - NNW 1014,9 35 0 0,0
14.06.2018 21:00:00 17,0 11,0 - - 9 5 - - NNW 1013,9 24 24 0,0
14.06.2018 20:00:00 19,8 10,7 - - 13 7 - - NNW 1013,3 40 42 0,0
14.06.2018 19:00:00 21,7 10,3 - - 16 9 - - NW 1012,4 25 54 0,0
14.06.2018 18:00:00 21,0 10,5 - - 16 9 - - WNW 1011,9 22 24 0,0
14.06.2018 17:00:00 22,5 11,3 - - 15 8 - - WNW 1011,5 23 24 0,0
14.06.2018 16:00:00 21,4 10,4 - - 22 12 - - W 1011,0 24 36 0,0
14.06.2018 15:00:00 20,0 14,4 - - 21 11 - - SW 1010,7 27 48 0,0
14.06.2018 14:00:00 18,3 14,6 - - 24 13 - - SW 1010,8 45 0 0,0
14.06.2018 13:00:00 16,8 13,8 - - 26 14 52 28 SW 1010,7 45 0 0,0
14.06.2018 12:00:00 16,5 13,4 - - 26 14 50 27 SW 1010,6 40 0 0,0
14.06.2018 11:00:00 16,0 13,1 - - 29 16 52 28 SW 1010,2 8 0 0,0
14.06.2018 10:00:00 16,2 12,3 17,0 15,0 35 19 52 28 SW 1009,7 29 0 0,0
14.06.2018 09:00:00 15,6 11,7 - - 31 17 50 27 SW 1010,4 27 0 0,0
14.06.2018 08:00:00 15,2 11,5 - - 28 15 46 25 SW 1010,4 40 0 0,0
14.06.2018 07:00:00 14,8 11,4 - - 26 14 - - SW 1010,8 27 0 0,0
14.06.2018 06:00:00 14,5 11,4 - - 26 14 - - SSW 1011,3 16 0 0,0
14.06.2018 05:00:00 14,3 11,4 - - 24 13 - - SSW 1011,9 12 0 0,0
14.06.2018 04:00:00 14,2 11,5 - - 24 13 - - SSW 1012,7 14 0 0,0
14.06.2018 03:00:00 14,3 11,0 - - 21 11 - - SW 1013,5 14 0 0,0
14.06.2018 02:00:00 14,6 10,5 - - 15 8 - - WSW 1014,1 9 0 0,0
14.06.2018 01:00:00 14,8 9,5 - - 16 9 - - SW 1014,8 45 - 0,0
14.06.2018 00:00:00 14,8 8,9 - - 16 9 - - SW 1015,4 50 0 0,0
13.06.2018 23:00:00 15,5 8,6 - - 18 10 - - SW 1015,8 50 0 0,0
13.06.2018 22:00:00 15,9 8,4 - - 21 11 - - SW 1016,1 50 0 0,0
13.06.2018 21:00:00 16,3 8,5 - - 18 10 - - SW 1016,2 50 0 0,0

tt = Température de l'air
td = dewpoint
tt -20cm = Température de l'air -20cm
tt -100cm = Température de l'air -100cm
ff = Vitesse du vent
fx = gusts
dd = Direction du vent
ppp = reduced air pressure
vv = visibility
sd = Ensoleillement
rr = Quantités de précipitations

stations d'obs. à proximité